Wind_Speed
19 21 23 25 26 28 29 30 30 30 30 28 26 25 24 21 21 21 21 21 20 20 19 18 17 17 17 18 18 18 17 17 16 15 15 15 14 14 13 12 11 10 9
16 18 19 21 24 26 27 28 29 29 29 28 27 25 23 22 23 22 22 23 22 21 20 19 19 19 19 18 18 19 18 17 17 17 17 16 15 15 14 13 12 11 10
15 16 17 18 20 22 24 25 27 27 27 28 27 27 25 23 23 23 23 23 23 23 21 21 20 21 20 19 19 19 19 19 18 18 18 17 16 16 16 15 14 12 11
14 14 14 15 17 19 21 22 24 25 25 26 26 26 26 24 24 24 24 24 24 24 23 22 21 21 21 20 19 19 19 19 19 19 19 18 17 17 17 16 15 13 12
13 12 12 12 14 16 18 19 21 23 24 25 26 26 25 25 25 24 25 25 25 24 23 23 22 22 22 21 20 19 20 20 19 20 20 19 18 18 18 17 17 15 13
13 11 10 10 11 12 14 16 19 21 23 24 26 27 26 26 25 24 25 26 26 25 24 23 23 23 22 22 22 21 21 20 20 21 21 20 19 19 19 18 17 16 15
14 12 10 8 8 10 11 13 16 19 21 22 24 25 25 26 27 26 26 27 26 26 25 24 25 25 24 23 23 23 22 22 21 21 22 21 21 20 20 19 18 17 16
14 13 10 7 6 6 8 10 13 15 19 21 22 24 24 25 26 27 27 28 27 27 27 27 26 26 26 25 25 24 24 24 23 23 23 22 22 21 21 20 19 19 18
15 13 11 8 6 4 5 8 10 13 15 18 21 22 23 24 26 27 28 29 29 29 29 29 28 28 28 27 26 26 26 25 25 24 24 24 23 22 22 22 21 20 20
15 14 11 9 7 5 4 5 8 10 13 15 19 21 22 22 25 27 28 30 30 30 31 30 30 30 30 29 28 28 28 28 26 26 26 26 24 24 23 23 23 22 21
16 14 12 10 8 6 4 4 7 9 11 13 16 19 21 21 23 26 28 30 31 31 31 31 31 32 32 31 31 30 29 29 28 28 28 27 26 26 25 25 24 23 23
16 15 13 11 9 7 5 4 4 6 9 11 14 16 19 21 22 25 27 29 31 31 32 32 33 32 33 33 32 32 31 31 31 30 29 29 29 28 27 26 25 25 25
16 16 14 12 10 8 7 6 5 5 7 9 12 14 17 19 21 23 25 28 29 31 32 33 33 34 34 35 35 34 34 33 32 32 32 31 31 31 30 29 28 27 27
16 16 15 13 11 10 8 7 6 5 6 7 10 12 14 17 20 22 24 26 28 29 31 33 34 34 36 36 37 36 36 35 35 35 34 33 33 33 33 32 31 30 29
16 15 15 13 12 10 9 8 7 6 5 6 8 10 12 15 17 20 22 23 26 28 29 32 34 35 36 37 36 38 38 38 38 38 37 36 36 36 35 34 33 33 32
15 15 14 13 12 11 9 8 7 6 6 5 6 8 10 12 14 17 20 21 23 25 27 31 33 34 36 37 37 37 38 39 39 40 40 40 39 39 38 37 37 36 36
15 15 14 14 13 12 10 9 8 7 6 5 6 7 8 10 12 15 17 20 22 24 25 28 31 33 35 36 37 38 39 40 41 42 42 41 42 42 41 40 40 40 38
15 15 15 14 13 12 11 10 9 8 7 6 6 7 8 9 11 13 15 18 20 22 24 25 28 30 33 35 36 38 39 41 42 42 44 43 43 43 43 43 43 43 42
15 15 15 14 14 13 12 11 10 9 8 7 7 7 7 8 10 11 13 16 18 20 22 24 26 29 31 33 35 37 39 40 41 42 43 44 45 45 46 45 46 45 45
15 15 15 15 14 13 13 12 11 9 9 8 7 7 7 8 9 11 12 14 16 19 21 23 25 27 30 31 34 36 38 39 41 43 43 45 46 47 48 47 47 47 47
15 16 16 15 15 14 13 13 12 11 10 10 9 8 8 8 9 10 12 13 15 17 19 21 23 25 27 30 31 34 36 38 40 42 43 45 45 47 48 48 48 48 49
15 16 16 16 15 15 14 13 12 12 11 11 10 9 9 9 10 10 11 12 14 15 17 19 21 23 25 27 29 31 33 35 38 40 41 43 45 45 47 48 48 48 50
15 15 16 16 16 15 14 13 13 12 12 11 11 10 10 10 11 11 12 12 13 14 16 17 19 20 22 23 25 27 30 32 34 38 40 41 43 44 45 46 47 47 47
15 16 16 16 16 16 15 14 13 13 13 12 12 11 11 11 12 12 13 13 14 14 15 17 17 19 20 21 22 24 26 29 31 33 37 38 39 41 43 44 45 46 46
16 16 17 17 17 16 15 15 14 14 14 13 13 13 13 13 13 13 13 14 14 15 15 16 17 18 18 19 20 22 24 26 28 30 33 35 36 39 40 42 43 45 46
16 17 17 18 18 17 16 16 16 16 15 15 15 14 14 15 14 14 14 15 15 15 15 16 16 17 18 18 19 20 21 23 25 27 30 32 34 35 36 38 40 42 43
Wind_Direction
283 273 266 262 259 256 252 248 246 244 241 239 239 240 238 228 222 220 219 217 215 213 213 212 213 213 210 207 206 206 206 205 207 207 206 205 205 204 203 202 198 197 196
291 280 271 265 261 256 251 246 243 242 241 238 235 235 232 229 223 221 219 218 215 213 213 213 214 213 210 208 207 207 209 211 210 209 208 208 209 209 207 206 204 205 205
299 287 276 269 263 258 252 245 240 240 238 237 234 232 228 226 222 220 219 218 216 214 215 215 215 213 211 212 210 209 212 212 211 210 209 211 211 210 209 209 210 211 211
313 297 285 275 265 258 252 245 238 235 233 232 232 230 227 226 220 219 219 219 217 217 218 217 217 214 212 213 214 212 212 212 211 210 210 212 213 211 212 214 214 215 217
327 314 296 285 270 259 250 243 238 235 232 229 229 228 227 225 222 220 220 219 218 219 219 217 217 215 214 214 215 213 212 214 213 212 212 213 214 214 215 217 219 218 219
339 327 311 295 276 262 251 243 237 235 232 229 228 228 228 225 224 222 221 220 220 221 221 219 218 216 216 217 215 215 215 215 215 216 215 215 215 215 217 218 219 218 219
350 341 327 310 286 267 254 243 237 233 232 230 227 227 227 227 226 223 222 222 221 221 222 221 220 219 219 219 218 219 218 217 218 217 216 218 217 218 220 220 220 219 220
360 356 346 331 310 281 260 245 237 233 232 230 228 226 227 226 225 224 223 224 223 223 223 222 222 221 222 222 222 222 222 220 219 218 218 219 220 221 221 222 222 222 224
4 2 360 353 339 309 269 247 236 233 233 233 229 228 229 228 225 224 224 225 225 225 223 224 225 224 223 224 224 224 224 222 222 220 219 220 222 224 223 223 223 225 226
7 6 3 1 356 340 294 256 244 238 235 233 231 230 230 230 228 225 225 225 225 227 228 228 227 226 225 225 224 225 226 225 225 224 224 222 224 225 224 225 226 227 228
10 9 8 4 1 355 333 277 254 247 240 236 234 232 232 232 231 229 227 227 227 228 230 230 229 228 227 227 227 227 227 227 227 227 226 225 226 227 228 228 228 228 230
11 12 10 8 5 1 354 328 285 256 245 241 238 235 235 235 234 232 231 229 229 230 231 231 230 229 229 228 229 229 228 229 229 229 229 229 230 229 229 230 230 231 233
10 11 11 10 8 4 354 340 321 284 257 247 242 240 239 239 237 236 236 234 233 232 232 232 232 231 230 231 230 230 231 231 231 231 232 231 232 232 231 232 233 235 236
8 9 9 9 7 4 357 347 333 306 275 259 251 246 242 242 239 238 239 238 238 238 235 233 232 232 232 232 233 233 234 234 234 234 234 234 234 234 234 234 235 237 239
6 7 7 8 6 3 359 352 340 323 295 273 261 251 247 244 240 239 239 239 240 240 239 237 235 234 234 234 235 235 236 236 236 236 236 236 237 236 237 237 238 239 241
2 3 5 6 6 3 359 353 346 330 310 290 273 259 251 243 239 239 239 239 240 241 241 239 238 237 236 236 237 238 238 238 238 237 237 238 239 239 239 240 241 242 244
360 0 0 1 2 2 359 353 348 343 324 303 286 270 258 247 244 241 240 240 240 241 244 244 241 240 240 239 238 238 239 240 239 238 239 240 240 241 241 242 242 243 245
357 356 356 357 357 356 355 352 346 342 333 316 297 280 266 256 252 247 243 242 242 243 245 246 244 243 243 243 242 241 239 239 240 240 240 241 242 241 243 244 244 244 245
354 354 352 352 353 353 351 349 343 339 335 326 310 292 277 267 261 256 252 248 246 247 247 249 248 246 245 244 244 245 244 242 240 240 241 242 243 243 244 245 245 245 246
350 351 351 350 349 348 348 347 342 337 334 328 318 305 291 280 273 266 260 256 253 251 252 253 252 250 247 246 246 246 245 244 243 242 242 242 243 244 245 246 246 245 246
346 347 347 348 347 345 344 343 340 338 334 329 320 310 301 292 284 276 268 263 260 258 257 256 256 254 251 250 249 249 248 247 246 245 244 244 244 245 246 247 247 247 247
344 344 344 345 345 343 340 338 336 334 334 330 323 314 306 300 294 287 280 274 270 266 264 262 261 259 256 254 252 252 250 249 248 247 247 246 246 247 247 248 248 248 248
340 341 341 342 342 341 339 335 333 331 329 328 325 317 310 303 298 294 289 283 278 275 272 271 266 265 261 258 256 254 253 251 250 248 248 249 249 248 249 249 249 249 250
336 337 337 338 339 339 337 335 331 328 325 322 320 316 310 304 298 293 290 288 284 279 277 275 269 267 265 262 260 259 257 254 252 252 250 251 252 252 250 250 250 249 251
330 331 333 333 333 333 332 330 327 325 323 319 315 312 309 305 300 294 290 288 286 283 280 279 276 271 268 265 263 262 260 257 255 254 253 254 256 256 255 254 253 252 251
326 326 328 328 328 327 326 324 323 321 318 317 314 310 306 303 300 295 291 288 286 286 283 281 280 278 273 268 265 265 263 260 259 258 258 258 259 259 259 258 258 256 254
Height
5809 5808 5808 5808 5809 5810 5811 5813 5817 5820 5822 5825 5829 5832 5835 5838 5841 5844 5847 5850 5853 5856 5858 5860 5862 5864 5867 5869 5871 5874 5876 5878 5880 5883 5885 5887 5889 5891 5893 5894 5896 5897 5899
5804 5803 5802 5802 5803 5804 5805 5807 5810 5813 5816 5820 5824 5827 5830 5833 5837 5840 5843 5847 5849 5852 5855 5857 5859 5861 5864 5867 5869 5871 5874 5876 5878 5881 5883 5886 5888 5890 5892 5894 5895 5897 5898
5800 5798 5798 5797 5797 5798 5799 5801 5804 5808 5811 5814 5818 5822 5826 5829 5832 5836 5839 5843 5846 5849 5851 5854 5856 5858 5861 5864 5866 5869 5871 5874 5876 5879 5881 5884 5886 5888 5891 5893 5894 5896 5897
5797 5794 5793 5792 5792 5792 5794 5796 5799 5802 5806 5809 5813 5817 5821 5824 5828 5831 5835 5839 5842 5845 5848 5851 5853 5855 5858 5861 5864 5866 5868 5871 5874 5876 5879 5882 5884 5886 5889 5891 5893 5895 5896
5794 5792 5790 5789 5788 5788 5790 5792 5794 5798 5801 5804 5808 5812 5816 5820 5823 5827 5831 5834 5838 5841 5844 5847 5850 5852 5855 5858 5861 5863 5866 5869 5871 5874 5877 5879 5882 5884 5887 5889 5891 5893 5895
5792 5789 5787 5786 5785 5785 5786 5788 5790 5793 5796 5800 5803 5807 5811 5815 5818 5822 5826 5830 5834 5837 5840 5843 5846 5849 5852 5855 5858 5861 5863 5866 5868 5871 5874 5877 5879 5882 5884 5887 5889 5891 5893
5791 5788 5786 5784 5783 5783 5783 5785 5787 5789 5792 5796 5799 5803 5806 5810 5814 5818 5822 5825 5829 5833 5836 5839 5842 5845 5849 5851 5854 5857 5860 5863 5865 5868 5871 5874 5876 5879 5882 5884 5886 5889 5891
5791 5788 5785 5783 5781 5781 5781 5782 5784 5786 5789 5791 5795 5798 5802 5806 5809 5813 5816 5820 5824 5828 5831 5835 5838 5841 5845 5848 5851 5854 5857 5859 5862 5865 5868 5870 5873 5876 5879 5881 5883 5886 5888
5791 5787 5784 5782 5781 5780 5780 5780 5781 5783 5785 5787 5790 5793 5797 5801 5804 5808 5811 5815 5819 5823 5826 5830 5833 5837 5840 5843 5846 5849 5853 5856 5858 5861 5864 5867 5870 5872 5875 5878 5880 5882 5885
5791 5788 5785 5782 5781 5779 5779 5779 5780 5781 5782 5784 5786 5789 5793 5795 5799 5803 5806 5810 5814 5817 5821 5824 5828 5832 5835 5838 5841 5845 5848 5851 5854 5857 5859 5862 5865 5868 5871 5874 5876 5879 5881
5792 5788 5785 5782 5780 5779 5778 5778 5778 5779 5780 5781 5783 5785 5788 5791 5794 5797 5801 5804 5808 5812 5815 5819 5822 5826 5829 5833 5836 5839 5843 5846 5850 5853 5855 5858 5861 5864 5867 5870 5872 5875 5877
5792 5788 5785 5783 5780 5779 5778 5777 5776 5777 5777 5778 5780 5782 5784 5787 5789 5792 5795 5798 5802 5805 5809 5813 5816 5820 5823 5827 5830 5834 5837 5841 5844 5847 5850 5853 5856 5859 5862 5865 5868 5871 5873
5792 5789 5786 5783 5780 5779 5777 5776 5775 5775 5775 5776 5777 5778 5780 5782 5784 5787 5789 5792 5795 5799 5803 5806 5810 5813 5817 5820 5824 5828 5831 5835 5838 5841 5845 5848 5851 5854 5857 5860 5863 5865 5868
5793 5789 5786 5783 5781 5778 5777 5775 5774 5773 5773 5774 5774 5775 5777 5778 5780 5782 5784 5787 5790 5793 5796 5799 5803 5806 5810 5813 5817 5821 5824 5828 5832 5835 5838 5841 5845 5848 5851 5854 5857 5859 5862
5793 5790 5786 5783 5781 5778 5776 5774 5773 5772 5771 5771 5772 5772 5773 5774 5775 5777 5779 5782 5785 5787 5790 5792 5796 5799 5802 5806 5809 5813 5817 5821 5824 5828 5831 5834 5837 5841 5844 5847 5850 5853 5855
5793 5790 5786 5783 5781 5778 5776 5774 5772 5770 5769 5769 5769 5769 5770 5770 5771 5773 5775 5777 5779 5781 5783 5786 5788 5791 5795 5798 5802 5805 5809 5812 5816 5819 5823 5826 5829 5833 5836 5839 5842 5845 5848
5793 5790 5786 5783 5780 5778 5775 5773 5771 5769 5768 5767 5767 5767 5767 5767 5768 5769 5770 5772 5773 5775 5777 5779 5781 5784 5787 5790 5794 5797 5800 5803 5807 5810 5814 5817 5820 5824 5827 5831 5834 5836 5839
5792 5789 5786 5783 5780 5777 5775 5772 5770 5768 5767 5765 5764 5764 5764 5764 5764 5765 5766 5767 5768 5769 5771 5772 5774 5776 5779 5782 5785 5788 5791 5794 5797 5801 5804 5807 5811 5814 5818 5821 5824 5827 5830
5792 5788 5785 5782 5779 5777 5774 5772 5769 5767 5765 5764 5762 5761 5761 5761 5761 5761 5761 5761 5762 5763 5765 5766 5767 5769 5771 5773 5776 5779 5781 5784 5787 5790 5794 5797 5800 5804 5807 5810 5813 5817 5820
5791 5788 5784 5781 5778 5776 5773 5771 5768 5766 5764 5762 5760 5759 5758 5758 5757 5757 5757 5757 5757 5758 5759 5759 5760 5761 5763 5765 5767 5769 5771 5774 5777 5780 5783 5786 5789 5793 5796 5799 5803 5805 5808
5790 5786 5783 5780 5777 5774 5772 5769 5767 5765 5763 5761 5759 5758 5756 5755 5755 5754 5753 5753 5753 5753 5753 5753 5753 5754 5755 5757 5758 5760 5762 5764 5766 5768 5771 5775 5779 5782 5784 5787 5790 5793 5796
5788 5785 5782 5779 5776 5773 5771 5768 5766 5763 5761 5759 5757 5756 5754 5753 5752 5751 5750 5749 5748 5748 5747 5747 5747 5747 5748 5749 5750 5751 5752 5754 5756 5759 5760 5764 5767 5770 5772 5775 5778 5781 5783
5786 5783 5781 5777 5774 5772 5769 5766 5764 5762 5759 5757 5755 5753 5752 5750 5749 5748 5746 5745 5744 5743 5742 5742 5741 5741 5741 5741 5742 5743 5743 5744 5746 5747 5750 5753 5755 5758 5760 5763 5766 5768 5771
5784 5782 5779 5776 5773 5770 5767 5765 5762 5760 5757 5755 5753 5751 5749 5747 5746 5744 5743 5742 5740 5739 5738 5737 5736 5735 5735 5735 5735 5735 5735 5736 5738 5739 5740 5743 5745 5747 5749 5751 5754 5756 5759
5782 5779 5776 5773 5770 5768 5765 5762 5760 5757 5755 5753 5751 5748 5746 5744 5742 5741 5739 5738 5736 5735 5733 5732 5731 5730 5729 5729 5729 5729 5729 5729 5730 5731 5732 5734 5735 5737 5738 5740 5742 5744 5747
5779 5776 5774 5771 5768 5765 5762 5760 5757 5754 5752 5750 5747 5745 5743 5741 5739 5737 5735 5734 5732 5730 5729 5728 5726 5725 5724 5723 5723 5723 5723 5723 5723 5724 5724 5725 5726 5727 5729 5730 5731 5733 5735